Tracking 18852 objects as of 24-Nov-2017
HD Live streaming from Space Station
objects crossing your sky now

FENGYUN 1C DEB

Track FENGYUN 1C DEB now!
10-day predictions


NORAD ID: 30891
Int'l Code: 1999-025AYD
Perigee: 857.6 km
Apogee: 937.5 km
Inclination: 99.1 °
Period: 102.8 minutes
Semi major axis: 7268 km
RCS: 0.0053 m2 (small)
Launch date: May 10, 1999
Source: People's Republic of China (PRC)
Launch site: Taiyaun Space Center, China (TSC)

Note: This is SATELLITE DEBRIS
aabbcc
Your satellite tracking list
Your tracking list is empty




NASA's NSSDC Master Catalog

Two Line Element Set (TLE):
1 30891U 99025AYD 17327.39936608 +.00000411 +00000-0 +30011-3 0  9994
2 30891 099.0776 032.0977 0054982 089.3925 330.9025 14.00983473547561
Source of the keplerian elements: AFSPC